| time (UTC) | temp C | wind direction | speed KPH | gust KPH | rain 1hr cm | rain 24hr cm | rain mn cm | humidity % | barometer mb |
| 20260503224000 | 9 | 204 | 1.6 | 8.0 | 0.00 | 0.08 | 0.08 | 85 | 1007.8 |
| 20260503222509 | 9 | 233 | 1.6 | 8.0 | 0.00 | 0.08 | 0.08 | 85 | 1008.0 |
| 20260503220924 | 8 | 228 | 1.6 | 8.0 | 0.00 | 0.08 | 0.08 | 86 | 1008.2 |
| 20260503215446 | 8 | 248 | 1.6 | 8.0 | 0.00 | 0.08 | 0.08 | 86 | 1008.5 |
| 20260503213955 | 8 | 265 | 1.6 | 8.0 | 0.00 | 0.08 | 0.08 | 85 | 1008.3 |
| 20260503212514 | 8 | 275 | 1.6 | 17.7 | 0.08 | 0.08 | 0.08 | 85 | 1008.2 |
| 20260503210943 | 8 | 241 | 6.4 | 35.4 | 0.08 | 0.08 | 0.08 | 83 | 1008.3 |
| 20260503205423 | 8 | 232 | 11.3 | 27.4 | 0.10 | 0.05 | 0.05 | 80 | 1008.8 |
| 20260503202333 | 10 | 284 | 8.0 | 24.1 | 0.00 | 0.00 | 0.00 | 74 | 1008.5 |
| 20260503200802 | 11 | 271 | 14.5 | 38.6 | 0.00 | 0.00 | 0.00 | 66 | 1008.6 |
| 20260503195235 | 13 | 257 | 14.5 | 37.0 | 0.00 | 0.00 | 0.00 | 52 | 1008.2 |
| 20260503193711 | 13 | 319 | 11.3 | 24.1 | 0.00 | 0.00 | 0.00 | 52 | 1008.2 |
| 20260503192125 | 13 | 217 | 9.7 | 32.2 | 0.00 | 0.00 | 0.00 | 49 | 1008.5 |
| 20260503190611 | 12 | 214 | 12.9 | 32.2 | 0.00 | 0.00 | 0.00 | 48 | 1008.3 |
| 20260503185044 | 13 | 224 | 11.3 | 27.4 | 0.00 | 0.00 | 0.00 | 44 | 1008.2 |
| 20260503181952 | 14 | 240 | 11.3 | 25.7 | 0.00 | 0.00 | 0.00 | 44 | 1008.5 |
| 20260503174821 | 13 | 234 | 12.9 | 30.6 | 0.00 | 0.00 | 0.00 | 43 | 1009.0 |
| 20260503173319 | 13 | 246 | 12.9 | 30.6 | 0.00 | 0.00 | 0.00 | 45 | 1009.3 |
| 20260503171859 | 12 | 204 | 12.9 | 24.1 | 0.00 | 0.00 | 0.00 | 45 | 1009.4 |
| 20260503170351 | 12 | 220 | 12.9 | 24.1 | 0.00 | 0.00 | 0.00 | 46 | 1009.7 |
| 20260503150320 | 9 | 181 | 8.0 | 16.1 | 0.00 | 0.00 | 0.00 | 51 | 1011.4 |
| 20260503140225 | 7 | 220 | 4.8 | 11.3 | 0.00 | 0.00 | 0.00 | 58 | 1012.4 |
| 20260503130317 | 5 | 223 | 1.6 | 6.4 | 0.00 | 0.00 | 0.00 | 73 | 1012.5 |
| 20260503120127 | 1 | 237 | 0.0 | 4.8 | 0.00 | 0.00 | 0.00 | 87 | 1012.4 |
| 20260503081549 | -2 | 213 | 0.0 | 0.0 | 0.00 | 0.00 | 0.00 | 82 | 1013.1 |
| 20260503080123 | -2 | 213 | 0.0 | 0.0 | 0.00 | 0.00 | 0.00 | 82 | 1013.2 |
| 20260503071536 | -2 | 213 | 0.0 | 0.0 | 0.00 | 0.00 | 0.00 | 82 | 1013.3 |
| 20260503070114 | -2 | 213 | 0.0 | 0.0 | 0.00 | 0.00 | 0.00 | 83 | 1013.3 |
| 20260503060145 | -2 | 213 | 0.0 | 0.0 | 0.00 | 0.00 | 0.00 | 80 | 1013.9 |
| 20260503054655 | -2 | 213 | 0.0 | 0.0 | 0.00 | 0.00 | 0.00 | 81 | 1014.0 |
| 20260503053231 | -2 | 213 | 0.0 | 0.0 | 0.00 | 0.00 | 0.00 | 81 | 1014.0 |
| 20260503051707 | -2 | 213 | 0.0 | 0.0 | 0.00 | 0.00 | 0.00 | 80 | 1014.1 |
| 20260503050222 | -2 | 213 | 0.0 | 0.0 | 0.00 | 0.00 | 0.00 | 78 | 1014.2 |
| 20260503044723 | -2 | 213 | 0.0 | 0.0 | 0.00 | 0.00 | 0.00 | 77 | 1014.2 |
| 20260503043204 | -2 | 213 | 0.0 | 0.0 | 0.00 | 0.00 | 0.00 | 76 | 1014.3 |
| 20260503041616 | -2 | 213 | 0.0 | 0.0 | 0.00 | 0.00 | 0.00 | 75 | 1014.4 |
| 20260503040110 | -1 | 213 | 0.0 | 0.0 | 0.00 | 0.00 | 0.00 | 75 | 1014.3 |
| 20260503034627 | -1 | 213 | 0.0 | 0.0 | 0.00 | 0.00 | 0.00 | 75 | 1014.3 |
| 20260503033202 | -1 | 213 | 0.0 | 0.0 | 0.00 | 0.00 | 0.00 | 74 | 1014.3 |
| 20260503031640 | -1 | 213 | 0.0 | 0.0 | 0.00 | 0.00 | 0.00 | 72 | 1014.3 |
| 20260503030216 | -1 | 213 | 0.0 | 0.0 | 0.00 | 0.00 | 0.00 | 72 | 1014.4 |
| 20260503024716 | 0 | 213 | 0.0 | 0.0 | 0.00 | 0.00 | 0.00 | 71 | 1014.5 |
| 20260503023150 | 0 | 213 | 0.0 | 0.0 | 0.00 | 0.00 | 0.00 | 70 | 1014.6 |
| 20260503021715 | 0 | 213 | 0.0 | 0.0 | 0.00 | 0.00 | 0.00 | 69 | 1014.7 |
| 20260503020153 | 1 | 213 | 0.0 | 0.0 | 0.00 | 0.00 | 0.00 | 66 | 1014.6 |
| 20260503014726 | 1 | 213 | 0.0 | 0.0 | 0.00 | 0.00 | 0.00 | 66 | 1014.6 |
| 20260503013150 | 2 | 213 | 0.0 | 0.0 | 0.00 | 0.00 | 0.00 | 65 | 1014.5 |
| 20260503011638 | 2 | 213 | 0.0 | 0.0 | 0.00 | 0.00 | 0.00 | 63 | 1014.5 |
| 20260503010124 | 3 | 213 | 0.0 | 0.0 | 0.00 | 0.00 | 0.00 | 61 | 1014.4 |
| 20260503004632 | 3 | 213 | 0.0 | 0.0 | 0.00 | 0.00 | 0.00 | 58 | 1014.2 |
| 20260503003128 | 5 | 215 | 0.0 | 0.0 | 0.00 | 0.00 | 0.00 | 56 | 1014.0 |
| 20260503001645 | 5 | 282 | 0.0 | 0.0 | 0.00 | 0.00 | 0.00 | 57 | 1014.0 |
| 20260502234444 | 5 | 286 | 0.0 | 6.4 | 0.00 | 0.00 | 0.00 | 55 | 1014.1 |
| 20260502232920 | 5 | 247 | 3.2 | 8.0 | 0.00 | 0.00 | 0.00 | 52 | 1014.2 |
| 20260502231355 | 6 | 298 | 3.2 | 12.9 | 0.00 | 0.00 | 0.00 | 52 | 1014.2 |
| 20260502225857 | 6 | 322 | 4.8 | 16.1 | 0.00 | 0.00 | 0.00 | 52 | 1014.2 |